Location: Columbia
(38.9520°N, 92.3340°W)
Time: 17:56:58
(UTC-06:00)

ISS - Visible Passes

Search period start: 18 November 2019 00:00
Search period end: 28 November 2019 00:00
Orbit: 412 x 421 km, 51.6° (Epoch: 19 November)

Date Brightness Start Highest point End Pass type
(mag) Time Alt. Az. Time Alt. Az. Time Alt. Az.
19 Nov -1.9 18:25:09 10° S 18:26:54 19° SSE 18:26:54 19° SSE visible
20 Nov -1.5 17:38:12 10° SSE 17:39:36 12° SE 17:40:56 10° ESE visible
20 Nov -1.3 19:12:36 10° WSW 19:13:53 21° WSW 19:13:53 21° WSW visible
21 Nov -3.9 18:24:14 10° SW 18:27:33 68° SE 18:27:48 64° ESE visible
22 Nov -2.9 17:36:08 10° SSW 17:39:14 36° SE 17:41:38 15° ENE visible
22 Nov -1.1 19:13:06 10° W 19:14:33 20° WNW 19:14:33 20° WNW visible
23 Nov -2.8 18:24:18 10° WSW 18:27:30 41° NNW 18:28:18 34° N visible
24 Nov -3.6 17:35:42 10° WSW 17:39:02 72° NW 17:41:58 13° NE visible
24 Nov -0.7 19:14:10 10° WNW 19:14:52 13° NW 19:14:52 13° NW visible
25 Nov -1.8 18:25:03 10° WNW 18:27:37 20° NNW 18:28:28 18° N visible
26 Nov -2.2 17:36:03 10° W 17:39:01 28° NNW 17:42:00 10° NNE visible
27 Nov -1.3 18:26:19 10° NW 18:27:53 13° NNW 18:28:23 12° N visible
